• En España
  • Lista de países
  • Para 7 días
  • Temperatura del agua
  • Mapa Satelital
  • El tiempo en el mapa
  • Informadores
  • user-avatar
    Iniciar sesión

    Tiempo cada hora Kazarma

    Hoy, 17 Octubre, Miércoles

    Tiempo Temperatura Precipitaciones Viento Presión Humedad
    00:00 +5°C° 0 mm 3 mps 744 mmHg 96%
    01:00 +5°C° 0 mm 3 mps 743 mmHg 96%
    02:00 +5°C° 0 mm 3 mps 743 mmHg 96%
    03:00 +5°C° 0 mm 4 mps 742 mmHg 95%
    04:00 +6°C° 0 mm 5 mps 741 mmHg 95%
    05:00 +6°C° 0.1 mm 4 mps 741 mmHg 94%
    06:00 +6°C° 0.1 mm 4 mps 740 mmHg 93%
    07:00 +6°C° 0.1 mm 4 mps 740 mmHg 93%
    08:00 +7°C° 0.1 mm 5 mps 739 mmHg 90%
    09:00 +7°C° 0.1 mm 5 mps 739 mmHg 87%
    10:00 +8°C° 0.1 mm 6 mps 739 mmHg 84%
    11:00 +7°C° 0.1 mm 6 mps 739 mmHg 79%
    12:00 +6°C° 0.1 mm 7 mps 740 mmHg 74%
    13:00 +5°C° 0.1 mm 7 mps 740 mmHg 69%
    14:00 +5°C° 0 mm 7 mps 741 mmHg 68%
    15:00 +5°C° 0 mm 7 mps 742 mmHg 68%
    16:00 +4°C° 0 mm 7 mps 743 mmHg 67%
    17:00 +4°C° 0 mm 6 mps 744 mmHg 69%
    18:00 +3°C° 0 mm 6 mps 745 mmHg 71%
    19:00 +3°C° 0 mm 5 mps 746 mmHg 73%
    20:00 +2°C° 0 mm 5 mps 746 mmHg 76%
    21:00 +2°C° 0 mm 5 mps 746 mmHg 78%
    22:00 +2°C° 0 mm 5 mps 747 mmHg 80%
    23:00 +2°C° 0 mm 5 mps 747 mmHg 82%

    Mañana, 18 Octubre, Jueves

    Tiempo Temperatura Precipitaciones Viento Presión Humedad
    00:00 +1°C° 0 mm 4 mps 747 mmHg 84%
    01:00 +1°C° 0 mm 4 mps 748 mmHg 85%
    02:00 +1°C° 0 mm 4 mps 748 mmHg 85%
    03:00 +1°C° 0 mm 4 mps 748 mmHg 84%
    04:00 +1°C° 0 mm 4 mps 748 mmHg 84%
    05:00 +1°C° 0 mm 4 mps 749 mmHg 84%
    06:00 +1°C° 0 mm 4 mps 749 mmHg 83%
    07:00 +1°C° 0 mm 4 mps 749 mmHg 83%
    08:00 +3°C° 0 mm 4 mps 749 mmHg 80%
    09:00 +3°C° 0 mm 4 mps 749 mmHg 78%
    10:00 +3°C° 0 mm 4 mps 749 mmHg 76%
    11:00 +4°C° 0 mm 4 mps 749 mmHg 74%
    12:00 +4°C° 0 mm 4 mps 749 mmHg 73%
    13:00 +4°C° 0 mm 4 mps 749 mmHg 71%
    14:00 +4°C° 0 mm 3 mps 749 mmHg 73%
    15:00 +4°C° 0 mm 3 mps 749 mmHg 74%
    16:00 +5°C° 0 mm 2 mps 749 mmHg 76%
    17:00 +4°C° 0 mm 2 mps 749 mmHg 80%
    18:00 +3°C° 0 mm 2 mps 749 mmHg 85%
    19:00 +2°C° 0 mm 2 mps 749 mmHg 90%
    20:00 +3°C° 0.1 mm 2 mps 748 mmHg 90%
    21:00 +3°C° 0.1 mm 2 mps 748 mmHg 89%
    22:00 +3°C° 0.1 mm 2 mps 747 mmHg 89%
    23:00 +3°C° 0.3 mm 2 mps 747 mmHg 89%

    Pasado mañana, 19 Octubre, Viernes

    Tiempo Temperatura Precipitaciones Viento Presión Humedad
    00:00 +3°C° 0.3 mm 3 mps 746 mmHg 90%
    01:00 +3°C° 0.3 mm 3 mps 746 mmHg 90%
    02:00 +3°C° 0.4 mm 3 mps 745 mmHg 91%
    03:00 +3°C° 0.4 mm 3 mps 745 mmHg 92%
    04:00 +4°C° 0.4 mm 3 mps 745 mmHg 94%
    05:00 +4°C° 0.3 mm 3 mps 744 mmHg 95%
    06:00 +4°C° 0.3 mm 3 mps 744 mmHg 95%
    07:00 +5°C° 0.3 mm 2 mps 744 mmHg 96%
    08:00 +6°C° 0.1 mm 2 mps 744 mmHg 96%
    09:00 +5°C° 0.1 mm 3 mps 744 mmHg 95%
    10:00 +7°C° 0.1 mm 3 mps 744 mmHg 94%
    11:00 +7°C° 0 mm 3 mps 743 mmHg 93%
    12:00 +8°C° 0 mm 3 mps 743 mmHg 92%
    13:00 +8°C° 0 mm 3 mps 743 mmHg 90%
    14:00 +8°C° 0 mm 3 mps 743 mmHg 90%
    15:00 +8°C° 0 mm 3 mps 743 mmHg 90%
    16:00 +8°C° 0 mm 3 mps 743 mmHg 90%
    17:00 +8°C° 0 mm 3 mps 743 mmHg 90%
    18:00 +7°C° 0 mm 3 mps 743 mmHg 90%
    19:00 +6°C° 0 mm 4 mps 742 mmHg 90%
    20:00 +7°C° 0 mm 3 mps 742 mmHg 91%
    21:00 +7°C° 0 mm 3 mps 742 mmHg 92%
    22:00 +7°C° 0 mm 3 mps 741 mmHg 93%
    23:00 +7°C° 0.3 mm 3 mps 741 mmHg 93%

    20 Octubre, Sábado

    Tiempo Temperatura Precipitaciones Viento Presión Humedad
    00:00 +7°C° 0.3 mm 3 mps 741 mmHg 94%
    01:00 +7°C° 0.3 mm 3 mps 741 mmHg 94%
    02:00 +7°C° 0.4 mm 3 mps 741 mmHg 94%
    03:00 +7°C° 0.4 mm 3 mps 741 mmHg 94%
    04:00 +7°C° 0.4 mm 3 mps 741 mmHg 94%
    05:00 +7°C° 0 mm 3 mps 741 mmHg 94%
    06:00 +5°C° 0 mm 3 mps 741 mmHg 94%
    07:00 +5°C° 0 mm 3 mps 741 mmHg 94%
    08:00 +5°C° 0 mm 3 mps 741 mmHg 90%
    09:00 +5°C° 0 mm 3 mps 741 mmHg 86%
    10:00 +7°C° 0 mm 3 mps 741 mmHg 82%
    11:00 +7°C° 0 mm 3 mps 741 mmHg 78%
    12:00 +7°C° 0 mm 3 mps 741 mmHg 75%
    13:00 +8°C° 0 mm 3 mps 741 mmHg 72%
    14:00 +7°C° 0.1 mm 3 mps 741 mmHg 73%
    15:00 +7°C° 0.1 mm 3 mps 741 mmHg 75%
    16:00 +7°C° 0.1 mm 3 mps 741 mmHg 77%
    17:00 +5°C° 0.1 mm 3 mps 741 mmHg 79%
    18:00 +5°C° 0.1 mm 3 mps 742 mmHg 81%
    19:00 +4°C° 0.1 mm 3 mps 742 mmHg 83%
    20:00 +4°C° 0 mm 4 mps 742 mmHg 84%
    21:00 +4°C° 0 mm 4 mps 742 mmHg 85%
    22:00 +4°C° 0 mm 4 mps 742 mmHg 86%
    23:00 +4°C° 0 mm 4 mps 742 mmHg 86%

    21 Octubre, Domingo

    Tiempo Temperatura Precipitaciones Viento Presión Humedad
    00:00 +3°C° 0 mm 4 mps 743 mmHg 86%
    01:00 +3°C° 0 mm 4 mps 743 mmHg 87%
    02:00 +3°C° 0 mm 4 mps 743 mmHg 87%
    03:00 +1°C° 0 mm 4 mps 743 mmHg 87%
    04:00 +1°C° 0 mm 4 mps 744 mmHg 87%
    05:00 +1°C° 0 mm 4 mps 744 mmHg 86%
    06:00 +1°C° 0 mm 4 mps 744 mmHg 85%
    07:00 +1°C° 0 mm 4 mps 745 mmHg 84%
    08:00 +1°C° 0 mm 4 mps 745 mmHg 82%
    09:00 +3°C° 0 mm 4 mps 745 mmHg 81%
    10:00 +3°C° 0 mm 4 mps 746 mmHg 79%
    11:00 +3°C° 0.1 mm 4 mps 746 mmHg 77%
    12:00 +3°C° 0.1 mm 4 mps 746 mmHg 76%
    13:00 +4°C° 0.1 mm 4 mps 747 mmHg 75%
    14:00 +3°C° 0.1 mm 4 mps 747 mmHg 75%
    15:00 +3°C° 0.1 mm 4 mps 747 mmHg 75%
    16:00 +3°C° 0.1 mm 4 mps 747 mmHg 76%
    17:00 +3°C° 0 mm 4 mps 748 mmHg 77%
    18:00 +2°C° 0 mm 3 mps 748 mmHg 79%
    19:00 +2°C° 0 mm 3 mps 748 mmHg 81%
    20:00 +2°C° 0 mm 3 mps 749 mmHg 81%
    21:00 +1°C° 0 mm 3 mps 749 mmHg 82%
    22:00 +1°C° 0 mm 3 mps 749 mmHg 83%
    23:00 +1°C° 0 mm 3 mps 749 mmHg 84%

    22 Octubre, Lunes

    Tiempo Temperatura Precipitaciones Viento Presión Humedad
    00:00 +2°C° 0 mm 2 mps 749 mmHg 85%
    01:00 +2°C° 0 mm 2 mps 749 mmHg 86%
    02:00 +2°C° 0 mm 2 mps 750 mmHg 87%
    03:00 +2°C° 0 mm 2 mps 750 mmHg 88%
    04:00 +1°C° 0 mm 2 mps 750 mmHg 89%
    05:00 +1°C° 0 mm 2 mps 750 mmHg 90%
    06:00 +1°C° 0 mm 2 mps 750 mmHg 91%
    07:00 +1°C° 0 mm 2 mps 750 mmHg 91%
    08:00 +1°C° 0 mm 2 mps 750 mmHg 85%
    09:00 +2°C° 0 mm 2 mps 750 mmHg 78%
    10:00 +1°C° 0 mm 3 mps 751 mmHg 72%
    11:00 +3°C° 0 mm 2 mps 751 mmHg 69%
    12:00 +3°C° 0 mm 2 mps 751 mmHg 66%
    13:00 +3°C° 0 mm 2 mps 751 mmHg 63%
    14:00 +3°C° 0 mm 2 mps 751 mmHg 66%
    15:00 +4°C° 0 mm 1 mps 751 mmHg 69%
    16:00 +4°C° 0 mm 1 mps 751 mmHg 73%
    17:00 +3°C° 0 mm 1 mps 751 mmHg 76%
    18:00 +3°C° 0 mm 1 mps 751 mmHg 79%
    19:00 +2°C° 0 mm 1 mps 751 mmHg 83%
    20:00 +2°C° 0 mm 1 mps 751 mmHg 85%
    21:00 +2°C° 0 mm 1 mps 751 mmHg 86%
    22:00 +1°C° 0 mm 2 mps 751 mmHg 88%
    23:00 +1°C° 0 mm 2 mps 751 mmHg 89%
    Mostrar más